Dewpoint
60 60 60 60 61 60 59 58 58 57 57 57 56 55 55 55 54 54 53 53 52 51 51 50 50 50 51 51 51 51 52 52 52 52 52 52 53 53 54 54 55 57 60 62 63 63 63 63 62 62 61 61 60 60 60 60 60 60 60 60 59 59 59 59 59 59 59 59 59
60 60 60 60 59 58 57 56 55 55 55 55 54 54 54 53 52 52 51 51 50 50 50 50 50 50 50 50 50 50 50 50 51 51 51 51 51 52 52 52 53 55 56 58 60 60 60 60 59 59 59 59 59 59 59 59 59 59 59 58 59 59 59 58 58 58 58 58 58
59 58 58 58 57 56 55 55 54 53 53 53 53 52 52 52 51 51 50 50 50 50 50 49 50 49 49 49 49 49 49 50 50 50 50 50 50 50 51 51 52 52 53 54 55 55 55 55 55 55 55 55 55 56 57 58 58 57 57 57 57 57 57 57 57 57 57 57 57
55 55 55 55 55 54 54 53 52 52 52 52 51 51 51 51 51 50 50 50 50 50 49 49 49 49 49 49 48 48 48 48 48 48 48 49 49 49 50 50 50 50 51 52 53 53 53 53 53 53 53 53 53 54 55 56 56 56 56 56 56 56 56 56 56 56 56 56 56
53 52 52 52 52 52 52 52 52 51 51 51 51 50 50 50 50 50 50 50 49 49 49 49 49 49 48 48 48 47 47 47 47 47 47 47 47 48 48 49 49 49 50 50 50 51 52 52 52 51 51 51 51 52 53 55 55 55 55 55 55 55 55 55 55 56 56 56 56
51 51 51 51 50 51 51 51 51 51 50 50 50 50 49 49 49 49 48 48 48 48 48 48 48 48 48 47 47 46 46 46 46 46 46 46 47 47 47 47 47 47 48 48 49 50 50 50 50 50 50 50 50 50 51 53 54 54 54 54 54 54 55 55 55 55 55 55 55
50 49 49 50 50 50 50 50 50 50 49 49 49 48 48 48 48 47 47 47 47 47 47 47 47 47 46 46 46 46 46 46 46 46 46 46 46 46 46 46 46 46 46 46 46 47 47 48 48 48 48 49 49 49 50 50 51 52 52 51 52 53 53 53 53 54 53 53 52
48 48 48 48 48 48 48 49 49 48 48 48 47 47 47 47 47 46 46 46 46 46 46 46 46 46 46 46 46 45 45 45 45 46 46 46 46 45 45 45 45 45 45 44 45 45 46 47 47 47 47 47 47 48 48 48 49 49 49 49 50 50 50 50 51 50 49 49 50
47 47 47 47 47 47 46 47 47 47 47 47 46 46 46 46 46 46 46 46 46 46 46 45 45 45 45 45 45 45 45 45 45 45 45 45 45 45 45 45 45 45 45 45 45 45 46 46 46 46 46 46 46 46 46 46 47 47 46 47 47 46 46 46 46 45 45 46 47
46 46 46 46 46 45 45 45 46 45 45 45 45 45 45 45 45 45 45 45 44 45 45 44 44 44 44 43 44 44 44 44 44 44 44 45 45 44 44 44 44 44 44 45 45 45 45 45 45 45 45 46 45 44 44 45 46 46 45 45 44 43 42 41 41 41 42 42 43
44 44 44 44 44 44 44 44 44 43 43 43 42 43 43 43 43 43 43 42 42 42 42 42 42 42 42 42 42 42 42 43 43 43 43 43 44 44 44 44 44 44 44 44 45 45 45 45 44 44 44 45 44 43 42 43 44 44 43 41 41 41 41 40 40 40 41 41 41
42 42 42 42 43 42 42 42 42 41 41 41 41 41 41 41 40 40 39 39 39 39 39 39 39 39 40 41 41 41 41 41 41 41 41 41 42 42 42 42 43 43 43 43 44 44 44 43 43 43 42 43 42 42 41 41 42 43 43 41 41 40 40 40 40 40 41 41 41
41 41 41 41 41 41 41 41 40 40 40 40 39 39 39 39 38 38 37 37 37 37 37 36 36 36 36 37 37 37 38 37 37 38 38 38 38 39 40 40 41 41 41 42 42 43 43 42 41 41 41 41 41 41 40 40 41 41 41 40 40 40 40 40 40 40 41 41 41
39 39 39 39 39 39 39 39 39 39 38 38 37 37 37 37 37 37 36 36 35 34 33 33 33 32 32 32 32 32 32 32 32 33 33 33 34 35 35 36 37 37 37 38 39 39 39 39 39 39 39 38 38 38 38 39 38 38 38 38 37 38 38 38 38 39 41 41 41
37 37 37 37 37 37 37 37 37 37 37 37 36 36 35 36 35 34 34 33 32 32 31 30 30 30 30 30 29 29 29 29 29 29 30 30 31 32 32 32 33 33 34 34 35 35 36 36 37 37 37 36 37 37 37 37 37 37 37 37 37 37 37 37 37 38 39 39 40
35 35 35 35 35 35 35 35 35 35 35 35 34 34 34 34 33 32 31 30 29 29 28 28 28 28 28 28 28 28 27 28 28 28 28 29 30 31 32 32 32 32 33 33 33 34 34 35 35 36 36 36 36 37 37 37 37 37 37 37 37 37 37 37 38 38 38 38 39
33 32 32 32 32 32 32 33 33 33 32 32 32 32 32 31 30 29 29 28 28 28 28 28 28 28 28 28 28 27 27 27 27 27 28 28 29 30 31 32 32 32 32 32 33 33 34 35 35 36 36 36 36 37 37 37 37 37 37 37 37 37 37 38 38 38 38 38 39
30 30 30 30 30 30 30 30 30 30 30 29 29 29 29 29 28 28 28 28 27 27 27 27 27 27 27 27 27 27 27 26 27 27 28 28 28 29 30 31 32 32 32 32 33 33 34 35 35 36 36 36 36 36 37 37 37 37 37 37 37 37 37 37 37 37 38 39 39
28 28 29 29 29 28 28 28 28 28 28 28 28 28 28 28 28 28 28 28 27 27 26 26 26 27 27 27 27 27 27 27 27 27 28 28 28 29 29 30 31 32 32 32 33 34 35 35 35 35 35 36 36 36 36 36 36 36 36 36 37 37 37 37 37 37 37 38 37
27 27 27 28 28 28 28 28 28 28 28 28 28 28 29 28 28 28 27 27 27 27 27 26 26 26 26 27 27 27 27 27 27 27 28 28 28 28 29 29 30 31 32 32 33 34 35 35 35 35 35 35 34 35 35 35 36 36 36 36 37 37 37 37 37 37 37 37 36
26 26 27 27 27 27 27 28 28 28 28 28 28 28 28 28 28 28 27 27 27 27 27 26 26 26 26 27 27 27 27 27 28 28 28 28 28 28 28 29 30 31 32 32 32 33 34 34 34 34 34 34 34 34 35 35 35 35 35 36 37 37 37 37 37 37 37 36 36
26 27 27 27 27 27 28 28 28 28 28 28 28 28 28 27 27 28 28 28 27 27 26 27 27 27 27 27 27 27 28 28 28 29 29 29 29 29 29 29 30 31 32 32 33 33 33 33 33 33 33 33 35 35 35 35 35 35 35 35 35 36 36 37 37 37 37 37 37
26 26 27 27 27 27 27 28 27 27 27 27 27 27 27 27 27 27 27 28 27 27 27 27 27 28 28 28 28 28 28 28 29 29 30 30 30 31 31 30 31 31 31 32 33 33 34 33 33 33 33 33 35 36 35 35 35 35 35 34 34 34 35 36 37 37 37 37 36
26 26 27 27 27 27 27 27 27 27 27 27 27 27 27 27 27 27 27 28 28 28 28 28 28 28 28 29 28 28 28 28 29 29 30 31 31 31 31 31 31 31 31 31 32 34 34 34 33 33 34 34 35 34 34 33 33 33 33 32 32 32 33 34 35 36 35 35 33
25 26 26 26 26 27 27 27 27 28 28 28 28 28 28 28 28 28 28 28 28 28 28 29 29 28 28 28 28 28 28 28 28 29 30 31 31 31 31 30 28 28 29 30 33 35 35 35 34 33 33 33 32 32 32 32 32 31 31 31 31 31 32 32 32 32 32 33 32
26 25 25 26 26 26 27 27 28 28 28 29 29 29 28 28 28 29 29 29 29 29 29 30 30 29 28 28 28 28 28 28 29 29 30 31 31 30 29 28 28 28 29 31 33 34 35 36 36 35 34 33 32 32 31 31 31 31 31 31 32 31 30 30 29 29 29 29 29
26 26 26 26 26 26 27 28 28 29 29 29 30 30 30 30 29 29 29 29 29 30 30 30 30 29 28 28 29 29 29 28 29 29 30 30 30 28 28 28 29 29 30 31 32 34 35 36 35 35 35 33 33 33 32 31 31 32 32 32 32 31 30 29 28 28 28 28 28
27 27 27 27 27 27 28 28 29 29 30 30 30 30 30 29 29 29 29 29 29 29 29 30 30 29 28 28 29 29 29 28 28 29 29 30 29 28 27 27 28 30 31 31 32 33 34 35 35 35 35 34 33 33 32 32 32 31 30 30 29 29 29 28 28 27 27 27 28
28 28 28 28 28 28 29 29 29 29 29 29 29 29 29 28 28 28 29 29 29 28 28 28 28 28 28 28 28 28 28 28 28 29 29 29 28 28 27 27 27 28 30 32 32 32 33 34 35 35 35 34 33 32 31 31 31 30 29 28 29 29 29 29 28 28 28 28 28
29 29 29 28 28 28 29 29 29 29 29 29 29 29 29 28 28 28 29 29 28 28 27 27 27 27 27 26 27 26 26 26 28 28 28 29 28 28 28 27 28 29 30 31 32 32 33 33 34 34 34 34 33 32 31 30 30 29 29 29 30 30 30 30 30 29 29 28 28
30 29 29 29 29 29 29 30 29 29 29 29 29 29 29 29 28 28 28 28 28 27 26 26 26 26 26 24 24 24 25 26 27 28 28 28 28 28 27 27 28 29 30 31 32 32 32 32 33 33 33 34 32 31 30 29 29 29 29 29 30 30 30 30 30 29 29 28 28
31 30 30 29 29 30 30 30 29 29 29 29 30 30 29 29 28 28 27 27 27 26 26 25 26 25 24 24 24 24 25 26 27 28 28 28 28 28 27 27 28 28 30 31 32 32 32 32 32 33 33 33 32 31 30 30 29 29 29 29 29 29 29 29 28 28 28 28 28
32 32 31 30 30 30 30 30 30 30 30 30 30 30 29 29 28 28 28 27 26 26 26 26 25 25 25 24 24 24 25 26 27 27 27 27 27 27 26 27 28 29 30 31 32 32 32 32 32 32 32 32 32 30 30 29 29 28 28 28 29 29 29 29 29 29 29 29 28
32 32 31 31 31 30 30 31 31 30 30 30 30 29 29 29 28 28 28 26 26 26 26 25 25 25 24 24 24 25 26 27 27 27 27 27 27 27 26 26 29 30 30 31 31 32 32 32 32 32 32 32 31 30 29 28 28 28 28 28 28 28 29 29 29 29 29 28 28
31 31 31 31 31 31 31 31 31 30 30 29 29 28 28 28 28 28 27 26 26 26 25 25 25 25 25 24 25 25 26 27 27 27 27 27 27 26 26 26 27 28 29 30 31 31 32 32 32 32 32 32 31 30 29 28 27 27 27 28 28 28 28 28 28 28 28 28 28
31 31 30 30 30 30 30 30 30 30 29 28 28 28 28 28 27 27 27 26 26 25 25 25 24 24 24 25 25 25 25 25 25 27 27 28 27 26 26 26 26 27 28 30 30 31 31 32 32 32 31 31 30 29 28 27 27 26 26 26 26 27 27 27 28 28 28 28 28
30 30 30 30 30 30 30 30 29 29 28 28 28 28 27 27 26 26 26 26 25 25 24 24 24 23 24 24 25 25 25 24 24 25 26 28 27 27 26 26 26 27 28 29 30 30 31 31 31 31 31 30 29 28 27 26 25 25 25 24 24 25 25 26 27 27 27 28 28
29 29 30 30 29 30 30 29 28 28 28 28 28 27 26 26 25 25 25 25 24 24 24 23 23 23 24 26 25 25 25 25 24 25 26 27 27 27 26 26 27 28 28 29 29 30 30 30 31 31 30 29 28 27 26 25 25 24 24 24 24 25 25 26 26 26 27 28 28
30 30 30 30 30 30 29 29 28 28 28 28 27 26 26 26 25 24 24 24 24 23 23 23 23 24 25 25 24 24 25 25 25 26 26 27 27 27 27 27 27 27 28 28 29 29 29 30 30 31 30 29 28 27 26 26 25 25 24 24 24 24 25 25 25 26 27 28 29
29 30 30 30 29 28 28 28 27 27 27 27 26 25 25 25 24 23 23 23 23 23 23 23 23 24 24 24 24 24 24 25 25 26 28 27 27 27 27 26 26 26 26 27 28 28 28 29 30 31 31 29 28 27 26 26 26 25 24 24 24 24 24 25 25 26 27 27 28
28 28 29 28 27 27 27 27 25 25 26 26 25 25 24 23 23 22 22 21 21 21 22 22 23 23 23 23 24 24 24 24 24 25 26 26 26 26 26 25 24 24 24 25 27 28 28 29 30 31 31 29 28 28 27 27 26 25 25 24 24 24 25 25 26 26 27 27 28